SKYSAT-C10

Last updated on Thu Oct 30 2025 00:02:32 GMT+0000 (Coordinated Universal Time)

1 42988U 17068B 25302.37683757 .00016383 00000+0 52984-3 0 9992 2 42988 97.4228 73.1277 0002663 137.3958 222.7491 15.32142787447007
UTC large
Height (km)
Speed (km/s)
/
Latitude / Longitude
Inclination (degrees)
Orbital Period (minutes)
Azimuth
Elevation
Range (km)
Doppler Factor

Next 0 passes for location: London (51.5072 / 0.1276)

Sorry there are no passes over London.